Starlink 32499

operational
NORAD ID: 61959 Int'l Des: 2024-210 Owner: SPXS Country: US Constellation: starlink
LEOCIRCULAR

Über Starlink 32499

Beschreibung wird geladen...

Live-Position

3D-Globus wird geladen...

Nächste Überflüge

Höhenverlauf

Altitude vs Time

uPlot chart will show altitude changes over time

Zweizeiliger Elementsatz

1 61959U 24210A 25305.39507592 .00025864 00000-0 94596-3 0 9995
2 61959 43.0045 183.9709 0001522 282.0843 77.9838 15.27585108 55309
Epoch: 1. Nov. 2025 • Age: 14 hours

Aktueller Status

Höhe 485.4 km
Geschwindigkeit 7.62 km/s
Subsatellitenpunkt -15.59°S, 129.3°E
Startdatum 14. Nov. 2024
Alter 0.9 years
Typ internet

Technische Details

Klassifizierung Payload
Masse 730.00 kg
Trockenmasse 700.00 kg
Gesamtmasse 730.00 kg
Länge 0.30 m
Durchmesser 4.10 m
Spannweite 29.00 m
Form Box + pan
Hersteller SPXS
Bus-Typ Starlink V2M
Phasenstatus In Orbit
Besitzer/Staat SPXS/US

Große Konstellationen

Loading constellations...